[[{"header":{"parameterUnit":"m.s-1","parameterCategory":1,"la1":30.2991,"la2":30.254,"lo1":-89.0895,"lo2":-89.0444,"dy":0.0017,"dx":0.0017,"nx":28,"ny":28,"refTime":"2023-11-05T09:00:00:Z","depth":0,"parameterNumber":2,"parameterNumberName":"U-component_of_WINDS"},"data":[0,0,0,0,0,0,0,0,0,0,0,0,0,0,0,0,0,0,0,0,0,0,0,0,0,0,0,0,0,0,0,0,0,0,0,0,0,0,0,0,0,0,0,0,0,0,0,0,0,0,0,0,0,0,0,0,0,0,-0.8243,-0.8243,0,-0.8313,-0.8314,-0.8315,-0.8309,-0.8308,-0.8307,-0.8306,-0.8377,-0.8379,-0.8382,0,0,0,0,0,0,0,0,0,0,0,0,0,-0.8101,-0.8104,-0.8243,-0.8243,-0.8244,-0.8313,-0.8314,-0.8315,-0.8309,-0.8308,-0.8306,-0.8305,-0.8376,-0.8379,-0.8382,0,0,0,0,0,0,0,0,0,0,0,0,0,-0.8166,-0.8105,-0.8242,-0.825,-0.8251,-0.8313,-0.8314,-0.8315,-0.8309,-0.8308,-0.8306,-0.8305,-0.8374,-0.8379,-0.8383,-0.8442,0,0,-0.8396,-0.8398,0,0,0,0,0,0,0,0,-0.8163,-0.8171,-0.8248,-0.8249,-0.8251,-0.8301,-0.829,-0.8358,-0.831,-0.8287,-0.8306,-0.8304,-0.8352,-0.8358,-0.8375,-0.8445,-0.8448,-0.8396,-0.8399,-0.8401,-0.8402,0,0,0,0,0,0,0,-0.8158,-0.8168,-0.827,-0.8249,-0.8251,-0.8249,-0.8256,-0.8303,-0.8328,-0.8289,-0.8289,-0.8297,-0.8353,-0.8371,-0.8377,-0.8449,-0.8396,-0.84,-0.8403,-0.8405,-0.857,-0.8572,0,0,0,0,0,0,-0.8152,-0.8165,-0.8268,-0.8273,-0.8202,-0.8253,-0.8261,-0.8286,-0.8327,-0.8332,-0.8299,-0.8297,-0.8364,-0.8372,-0.8379,-0.845,-0.8401,-0.8405,-0.8407,-0.8568,-0.857,-0.8572,0,0,0,0,0,0,-0.8149,-0.8161,-0.8265,-0.8219,-0.8232,-0.8257,-0.8285,-0.8288,-0.8306,-0.8335,-0.8339,-0.8312,-0.8363,-0.8373,-0.8426,-0.8453,-0.8407,-0.8411,-0.8566,-0.8569,-0.8571,-0.8593,0,0,0,0,0,0,-0.8145,-0.816,-0.8183,-0.8219,-0.8234,-0.8312,-0.8287,-0.8291,-0.8314,-0.8312,-0.8349,-0.8353,-0.8363,-0.842,-0.843,-0.8458,-0.8414,-0.8564,-0.8567,-0.857,-0.859,-0.8596,-0.8601,0,0,0,0,0,-0.814,-0.8186,-0.8184,-0.8197,-0.8263,-0.8313,-0.8322,-0.8332,-0.8316,-0.8339,-0.8357,-0.8352,-0.8448,-0.8425,-0.8437,-0.8466,-0.8562,-0.8566,-0.857,-0.8588,-0.8595,-0.8601,0,0,0,0,0,0,-0.8152,-0.8191,-0.8189,-0.8249,-0.8278,-0.8312,-0.8341,-0.834,-0.8374,-0.837,-0.8382,-0.839,-0.8443,-0.846,-0.8434,-0.8525,-0.8503,-0.851,-0.8512,-0.8519,-0.8525,-0.8519,-0.8418,0,0,0,0,0,-0.8162,-0.8199,-0.8231,-0.828,-0.8295,-0.8316,-0.8338,-0.8344,-0.8374,-0.8386,-0.8408,-0.8437,-0.8474,-0.8497,-0.8533,-0.8593,-0.86,-0.8619,-0.8624,-0.8629,-0.8634,-0.8667,-0.8675,-0.8586,-0.8586,-0.8585,0,0,-0.8182,-0.8208,-0.8231,-0.8284,-0.8307,-0.8345,-0.8326,-0.8367,-0.8395,-0.8392,-0.8443,-0.846,-0.8494,-0.855,-0.8576,-0.8566,-0.8661,-0.8634,-0.8637,-0.864,-0.8672,-0.868,-0.8688,-0.8588,-0.8588,-0.8587,0,0,-0.8238,-0.8262,-0.8305,-0.8329,-0.8364,-0.8378,-0.8388,-0.8423,-0.8434,-0.8486,-0.8484,-0.8518,-0.8581,-0.8605,-0.8625,-0.869,-0.8687,-0.8702,-0.8731,-0.8763,-0.877,-0.8776,-0.8799,-0.8807,-0.8707,-0.8707,-0.8707,0,-0.8258,-0.8316,-0.8328,-0.8369,-0.8392,-0.8392,-0.8435,-0.8458,-0.8503,-0.8518,-0.8506,-0.8586,-0.8608,-0.867,-0.8686,-0.8702,-0.8714,-0.8697,-0.8768,-0.8774,-0.878,-0.8802,-0.8811,-0.8709,-0.8709,-0.8708,-0.8708,0,-0.8339,-0.8379,-0.841,-0.8454,-0.8481,-0.8523,-0.8541,-0.8566,-0.857,-0.8584,-0.8637,-0.8664,-0.8705,-0.872,-0.8724,-0.8782,-0.8775,-0.8765,-0.8743,-0.879,-0.8811,-0.8819,-0.8711,-0.871,-0.871,-0.871,0,0,-0.8404,-0.8454,-0.8465,-0.8485,-0.8525,-0.8556,-0.8598,-0.8638,-0.866,-0.8691,-0.8726,-0.878,-0.8771,-0.8794,-0.8801,-0.8829,-0.8878,-0.8816,-0.8817,-0.8826,-0.8944,-0.895,-0.896,-0.8876,-0.8878,-0.8879,-0.8941,0,-0.8463,-0.8539,-0.8551,-0.8617,-0.8654,-0.8654,-0.8691,-0.8719,-0.8734,-0.8767,-0.8783,-0.8821,-0.8807,-0.8821,-0.8848,-0.8866,-0.8902,-0.8862,-0.8909,-0.891,-0.89,-0.8971,-0.8978,-0.9035,-0.8949,-0.8951,-0.8952,0,-0.8543,-0.8577,-0.8647,-0.8681,-0.8697,-0.873,-0.8768,-0.88,-0.8831,-0.884,-0.8866,-0.8869,-0.8913,-0.8889,-0.8949,-0.8922,-0.8942,-0.8953,-0.8956,-0.896,-0.8933,-0.8976,-0.9053,-0.9061,-0.8965,-0.8964,-0.8963,0,-0.8582,-0.8645,-0.8695,-0.8713,-0.8754,-0.8777,-0.8795,-0.8825,-0.8849,-0.8882,-0.8897,-0.8935,-0.8955,-0.8984,-0.8997,-0.8979,-0.9056,-0.9033,-0.9064,-0.9063,-0.9079,-0.9078,-0.9159,-0.9093,-0.9093,-0.9093,-0.9093,0,-0.8647,-0.8689,-0.8714,-0.8744,-0.8792,-0.8805,-0.8852,-0.8869,-0.8896,-0.893,-0.8932,-0.8964,-0.898,-0.9013,-0.9024,-0.9071,-0.9081,-0.9089,-0.9091,-0.9088,-0.9087,-0.91,-0.9096,-0.9095,-0.9095,-0.9094,-0.9094,0,-0.8698,-0.8716,-0.8771,-0.8806,-0.8816,-0.8849,-0.8879,-0.8909,-0.8924,-0.8966,-0.8977,-0.9,-0.904,-0.9057,-0.9105,-0.9112,-0.9167,-0.9166,-0.9156,-0.9157,-0.9186,-0.9182,-0.9278,-0.9291,-0.9217,-0.9218,-0.9218,0,-0.8738,-0.8771,-0.881,-0.8833,-0.8852,-0.8889,-0.8913,-0.8928,-0.8952,-0.8991,-0.9016,-0.9056,-0.9089,-0.9152,-0.9173,-0.921,-0.921,-0.9241,-0.9216,-0.9212,-0.921,-0.9207,-0.921,-0.9246,-0.9246,-0.9247,-0.9248,0,-0.8806,-0.8813,-0.8848,-0.8887,-0.8916,-0.8947,-0.8977,-0.8995,-0.9014,-0.9042,-0.9083,-0.9109,-0.9159,-0.9198,-0.9237,-0.9255,-0.9254,-0.9256,-0.9264,-0.9261,-0.9254,-0.9258,-0.9168,-0.9253,-0.9253,-0.9252,-0.9252,-0.9252,-0.8852,-0.8881,-0.8913,-0.8952,-0.8977,-0.9005,-0.9034,-0.9053,-0.9088,-0.913,-0.9137,-0.9181,-0.9211,-0.9263,-0.9283,-0.9317,-0.9309,-0.9322,-0.9325,-0.9328,-0.9329,-0.925,-0.9324,-0.9324,-0.9324,-0.9324,-0.9324,0,-0.8919,-0.894,-0.8976,-0.9018,-0.9049,-0.9047,-0.908,-0.9106,-0.9144,-0.9174,-0.9206,-0.9253,-0.9292,-0.9316,-0.9354,-0.9377,-0.9378,-0.9387,-0.9385,-0.9389,-0.9335,-0.9323,-0.9386,-0.9386,-0.9385,-0.9385,-0.9385,-0.9385,-0.8958,-0.9007,-0.9019,-0.908,-0.91,-0.9144,-0.9163,-0.9189,-0.9212,-0.9265,-0.9297,-0.9313,-0.934,-0.9381,-0.9416,-0.9422,-0.9435,-0.9445,-0.945,-0.9399,-0.9393,-0.9386,-0.9375,-0.9448,-0.9448,-0.9501,-0.9502,-0.9502]},{"header":{"parameterUnit":"m.s-1","parameterCategory":1,"la1":30.2991,"la2":30.254,"lo1":-89.0895,"lo2":-89.0444,"dy":0.0017,"dx":0.0017,"nx":28,"ny":28,"refTime":"2023-11-05T09:00:00:Z","depth":0,"parameterNumber":3,"parameterNumberName":"V-component_of_WINDS"},"data":[0,0,0,0,0,0,0,0,0,0,0,0,0,0,0,0,0,0,0,0,0,0,0,0,0,0,0,0,0,0,0,0,0,0,0,0,0,0,0,0,0,0,0,0,0,0,0,0,0,0,0,0,0,0,0,0,0,0,-0.2134,-0.2134,0,-0.2167,-0.2167,-0.2167,-0.2155,-0.2154,-0.2153,-0.2153,-0.2189,-0.219,-0.2192,0,0,0,0,0,0,0,0,0,0,0,0,0,-0.2064,-0.2065,-0.2134,-0.2134,-0.2135,-0.2166,-0.2167,-0.2167,-0.2155,-0.2154,-0.2153,-0.2152,-0.2188,-0.219,-0.2192,0,0,0,0,0,0,0,0,0,0,0,0,0,-0.2095,-0.2066,-0.2134,-0.2132,-0.2133,-0.2166,-0.2167,-0.2168,-0.2155,-0.2154,-0.2153,-0.2152,-0.2188,-0.219,-0.2193,-0.2231,0,0,-0.22,-0.2201,0,0,0,0,0,0,0,0,-0.2093,-0.2098,-0.2132,-0.2133,-0.2133,-0.2155,-0.2155,-0.2189,-0.2155,-0.2147,-0.2153,-0.2151,-0.2179,-0.2182,-0.2191,-0.2232,-0.2234,-0.22,-0.2202,-0.2203,-0.2204,0,0,0,0,0,0,0,-0.2091,-0.2096,-0.2147,-0.2133,-0.2133,-0.2131,-0.2134,-0.2162,-0.2169,-0.2147,-0.2147,-0.215,-0.2179,-0.2188,-0.2191,-0.2235,-0.22,-0.2203,-0.2204,-0.2205,-0.231,-0.2311,0,0,0,0,0,0,-0.2089,-0.2095,-0.2146,-0.2148,-0.211,-0.2133,-0.2137,-0.2149,-0.2168,-0.217,-0.2151,-0.215,-0.2185,-0.2189,-0.2193,-0.2239,-0.2203,-0.2205,-0.2207,-0.2308,-0.231,-0.2311,0,0,0,0,0,0,-0.2087,-0.2093,-0.2145,-0.2121,-0.2127,-0.2135,-0.215,-0.2151,-0.216,-0.2171,-0.2173,-0.216,-0.2184,-0.2189,-0.2221,-0.224,-0.2206,-0.2209,-0.2307,-0.2309,-0.2311,-0.2332,0,0,0,0,0,0,-0.2085,-0.2093,-0.2107,-0.2121,-0.2129,-0.2172,-0.2151,-0.2152,-0.2164,-0.2162,-0.218,-0.2181,-0.2183,-0.2218,-0.2224,-0.2243,-0.2211,-0.2305,-0.2308,-0.231,-0.233,-0.2334,-0.2338,0,0,0,0,0,-0.2083,-0.2112,-0.2108,-0.2114,-0.2146,-0.2173,-0.2177,-0.2178,-0.2166,-0.218,-0.2188,-0.2181,-0.2237,-0.2221,-0.2228,-0.2248,-0.2304,-0.2307,-0.231,-0.2328,-0.2333,-0.2338,0,0,0,0,0,0,-0.2101,-0.2114,-0.2109,-0.2144,-0.2157,-0.2171,-0.219,-0.2184,-0.2202,-0.22,-0.2201,-0.2205,-0.2238,-0.2246,-0.2228,-0.2286,-0.2269,-0.2273,-0.228,-0.2286,-0.229,-0.2288,-0.2213,0,0,0,0,0,-0.2109,-0.2129,-0.2139,-0.2169,-0.2176,-0.2182,-0.2193,-0.2193,-0.2207,-0.2213,-0.2222,-0.2237,-0.2258,-0.2272,-0.2292,-0.233,-0.2334,-0.2348,-0.2352,-0.2356,-0.236,-0.2381,-0.2387,-0.2321,-0.2321,-0.2321,0,0,-0.2126,-0.2135,-0.2148,-0.2173,-0.2183,-0.2205,-0.2186,-0.221,-0.2226,-0.2217,-0.2247,-0.2255,-0.2272,-0.2307,-0.2323,-0.2315,-0.2379,-0.2359,-0.2362,-0.2364,-0.2385,-0.2391,-0.2397,-0.2323,-0.2322,-0.2322,0,0,-0.2168,-0.2177,-0.2202,-0.2213,-0.2228,-0.2231,-0.2238,-0.2252,-0.2256,-0.2287,-0.228,-0.23,-0.2336,-0.2348,-0.2359,-0.2405,-0.24,-0.2411,-0.2435,-0.2455,-0.2461,-0.2465,-0.2483,-0.2489,-0.2415,-0.2415,-0.2415,0,-0.2187,-0.2218,-0.2217,-0.2241,-0.2252,-0.2243,-0.227,-0.228,-0.2302,-0.231,-0.23,-0.2345,-0.2356,-0.2394,-0.2405,-0.2414,-0.2422,-0.241,-0.246,-0.2465,-0.2469,-0.2485,-0.2492,-0.2416,-0.2416,-0.2416,-0.2416,0,-0.2242,-0.2263,-0.2283,-0.2302,-0.2316,-0.2341,-0.2344,-0.2358,-0.2356,-0.2361,-0.2393,-0.2405,-0.2427,-0.2436,-0.2435,-0.2474,-0.2469,-0.2459,-0.2442,-0.2477,-0.2492,-0.2498,-0.2418,-0.2418,-0.2417,-0.2417,0,0,-0.2298,-0.2315,-0.2322,-0.2331,-0.2347,-0.2364,-0.2389,-0.241,-0.2422,-0.2437,-0.2459,-0.2489,-0.248,-0.2493,-0.2493,-0.2511,-0.2547,-0.2499,-0.25,-0.2508,-0.2593,-0.2601,-0.2608,-0.2543,-0.2544,-0.2545,-0.2592,0,-0.2341,-0.2384,-0.2383,-0.2423,-0.2444,-0.2435,-0.2457,-0.247,-0.2474,-0.2493,-0.2499,-0.252,-0.2507,-0.2514,-0.2532,-0.2539,-0.2564,-0.2535,-0.2565,-0.2566,-0.2562,-0.2616,-0.2624,-0.2667,-0.2598,-0.2599,-0.2599,0,-0.2399,-0.2414,-0.2456,-0.2469,-0.2477,-0.2497,-0.2516,-0.2533,-0.2547,-0.255,-0.2563,-0.256,-0.2586,-0.2567,-0.2604,-0.2584,-0.2596,-0.2601,-0.2603,-0.2607,-0.2585,-0.2622,-0.2681,-0.2688,-0.2609,-0.2608,-0.2607,0,-0.2436,-0.2468,-0.2497,-0.2504,-0.252,-0.2534,-0.2541,-0.2554,-0.2566,-0.2583,-0.2591,-0.2611,-0.2623,-0.2639,-0.2641,-0.2627,-0.2678,-0.2659,-0.2682,-0.2682,-0.2695,-0.2694,-0.2757,-0.27,-0.27,-0.27,-0.27,0,-0.2486,-0.2512,-0.2514,-0.2532,-0.2561,-0.256,-0.2589,-0.2595,-0.2607,-0.2627,-0.262,-0.2639,-0.2641,-0.2661,-0.2663,-0.2694,-0.2699,-0.2702,-0.2703,-0.2703,-0.2703,-0.2712,-0.271,-0.2702,-0.2701,-0.2701,-0.2701,0,-0.2533,-0.2535,-0.2567,-0.2578,-0.2581,-0.2603,-0.2613,-0.2631,-0.2634,-0.266,-0.2665,-0.2672,-0.2695,-0.2698,-0.2726,-0.2727,-0.2764,-0.2761,-0.2759,-0.2759,-0.2782,-0.278,-0.2855,-0.2865,-0.28,-0.28,-0.2801,0,-0.2566,-0.2585,-0.2598,-0.2611,-0.2618,-0.2638,-0.2651,-0.265,-0.2664,-0.2681,-0.2697,-0.2719,-0.2736,-0.2773,-0.2781,-0.2802,-0.28,-0.2825,-0.2804,-0.2804,-0.2802,-0.2801,-0.2804,-0.2829,-0.283,-0.2831,-0.2831,0,-0.2623,-0.2623,-0.264,-0.2658,-0.2673,-0.2687,-0.2701,-0.2711,-0.2713,-0.2728,-0.2751,-0.2764,-0.2792,-0.2814,-0.2834,-0.2843,-0.2838,-0.2837,-0.2844,-0.2846,-0.2844,-0.2846,-0.2772,-0.2836,-0.2836,-0.2835,-0.2835,-0.2835,-0.2665,-0.2682,-0.2694,-0.2714,-0.2723,-0.2736,-0.2753,-0.2758,-0.2777,-0.2798,-0.2797,-0.2822,-0.2836,-0.2863,-0.2873,-0.2893,-0.2886,-0.2895,-0.2897,-0.29,-0.2903,-0.284,-0.2897,-0.2897,-0.2897,-0.2896,-0.2896,0,-0.2723,-0.2729,-0.2747,-0.2766,-0.2782,-0.2774,-0.2788,-0.2802,-0.2824,-0.2837,-0.2854,-0.288,-0.2902,-0.2911,-0.2932,-0.2947,-0.2945,-0.2953,-0.2952,-0.2954,-0.2908,-0.2901,-0.2954,-0.2954,-0.2954,-0.2954,-0.2954,-0.2954,-0.2755,-0.2784,-0.2785,-0.2819,-0.2826,-0.2849,-0.2859,-0.287,-0.2881,-0.291,-0.2927,-0.2932,-0.2944,-0.2966,-0.2985,-0.2988,-0.2996,-0.3005,-0.3007,-0.2963,-0.2958,-0.2952,-0.2945,-0.3007,-0.3007,-0.3051,-0.3052,-0.3052]}]]